,,,PA_Meas_PMT16A,,PR_Meas_QMR101_102,,RH_Meas_QMH101,,SR_Meas_QMS101,,TA_Meas_QMH101,,GenWind,,GenWind,
date,time,status,PA,status,PR,status,RH,status,SR,status,TA,status,DirAvg,status,SpdAvg,
2009-10-01, 00:00:04,VALID,1003.15,VALID,0,VALID,72.9855,VALID,0,VALID,27.9885,VALID,344,VALID,1.06367,
2009-10-01, 00:01:04,VALID,1003.19,VALID,0,VALID,72.7871,VALID,0,VALID,28.008,VALID,358,VALID,1.03633,
2009-10-01, 00:02:04,VALID,1003.11,VALID,0,VALID,73.0923,VALID,0,VALID,28.0254,VALID,318,VALID,0.31875,
2009-10-01, 00:03:04,VALID,1003.08,VALID,0,VALID,72.9855,VALID,0.100563,VALID,28.0059,VALID,346,VALID,0.448438,
2009-10-01, 00:04:04,VALID,1003.07,VALID,0,VALID,73.2525,VALID,0,VALID,28.0275,VALID,357,VALID,0.830859,
2009-10-01, 00:05:04,VALID,1003.05,VALID,0,VALID,73.0236,VALID,0.100563,VALID,28.0275,VALID,360,VALID,0.847266,
2009-10-01, 00:06:04,VALID,1003.06,VALID,0,VALID,73.5424,VALID,0.100563,VALID,28.0059,VALID,13,VALID,0.5875,
2009-10-01, 00:07:04,VALID,1003.08,VALID,0,VALID,73.5424,VALID,0,VALID,27.9474,VALID,337,VALID,0.84375,
2009-10-01, 00:08:04,VALID,1003.05,VALID,0,VALID,73.5958,VALID,0.100563,VALID,27.969,VALID,348,VALID,1.00391,
2009-10-01, 00:09:04,VALID,1003.04,VALID,0,VALID,73.6187,VALID,0,VALID,27.9495,VALID,338,VALID,1.41836,
2009-10-01, 00:10:04,VALID,1003.03,VALID,0,VALID,73.4737,VALID,0,VALID,27.93,VALID,352,VALID,1.56797,
2009-10-01, 00:11:04,VALID,1003,VALID,0,VALID,73.9925,VALID,0,VALID,27.9495,VALID,311,VALID,0.428516,
2009-10-01, 00:12:04,VALID,1003.01,VALID,0,VALID,74.229,VALID,0.100563,VALID,27.9084,VALID,356,VALID,0.729297,
2009-10-01, 00:13:04,VALID,1002.98,VALID,0,VALID,74.3434,VALID,0,VALID,27.9105,VALID,341,VALID,1.87188,
2009-10-01, 00:14:04,VALID,1002.98,VALID,0,VALID,74.4579,VALID,0,VALID,27.8694,VALID,336,VALID,1.99531,
2009-10-01, 00:15:04,VALID,1002.99,VALID,0,VALID,74.8927,VALID,0,VALID,27.8716,VALID,288,VALID,0.625781,
2009-10-01, 00:16:04,VALID,1002.97,VALID,0,VALID,75.0071,VALID,0,VALID,27.8305,VALID,340,VALID,1.50312,
2009-10-01, 00:17:04,VALID,1002.96,VALID,0,VALID,75.1979,VALID,0,VALID,27.8326,VALID,357,VALID,1.06016,
2009-10-01, 00:18:04,VALID,1002.98,VALID,0,VALID,75.4267,VALID,0,VALID,27.7915,VALID,347,VALID,1.24102,
2009-10-01, 00:19:04,VALID,1002.97,VALID,0,VALID,75.6785,VALID,0,VALID,27.8131,VALID,281,VALID,0.511719,
2009-10-01, 00:20:04,VALID,1002.94,VALID,0,VALID,75.5183,VALID,0,VALID,27.772,VALID,328,VALID,1.4582,
2009-10-01, 00:21:04,VALID,1002.93,VALID,0,VALID,75.854,VALID,0,VALID,27.7936,VALID,324,VALID,0.634766,
2009-10-01, 00:22:04,VALID,1002.89,VALID,0,VALID,75.7472,VALID,0.100563,VALID,27.733,VALID,350,VALID,1.13672,
2009-10-01, 00:23:04,VALID,1002.89,VALID,0,VALID,75.8006,VALID,0.100563,VALID,27.7525,VALID,2,VALID,1.23828,
2009-10-01, 00:24:04,VALID,1002.9,VALID,0,VALID,76.0599,VALID,0,VALID,27.7351,VALID,2,VALID,1.11914,
2009-10-01, 00:25:04,VALID,1002.88,VALID,0,VALID,76.3498,VALID,0.100563,VALID,27.6941,VALID,258,VALID,0.829687,
2009-10-01, 00:26:04,VALID,1002.9,VALID,0,VALID,76.0599,VALID,0,VALID,27.6962,VALID,350,VALID,1.38984,
2009-10-01, 00:27:04,VALID,1002.91,VALID,0,VALID,76.1667,VALID,0.100563,VALID,27.6962,VALID,341,VALID,1.19961,
2009-10-01, 00:28:04,VALID,1002.89,VALID,0,VALID,76.3422,VALID,0,VALID,27.6962,VALID,6,VALID,0.571094,
2009-10-01, 00:29:04,VALID,1002.94,VALID,0,VALID,76.3117,VALID,0,VALID,27.6962,VALID,307,VALID,0.219531,
2009-10-01, 00:30:04,VALID,1002.94,VALID,0,VALID,75.8845,VALID,0,VALID,27.6767,VALID,337,VALID,1.0668,
2009-10-01, 00:31:04,VALID,1002.95,VALID,0,VALID,76.0599,VALID,0.100563,VALID,27.6767,VALID,354,VALID,0.869531,
2009-10-01, 00:32:04,VALID,1002.96,VALID,0,VALID,76.2964,VALID,0,VALID,27.6356,VALID,353,VALID,0.227734,
2009-10-01, 00:33:04,VALID,1002.94,VALID,0,VALID,75.915,VALID,0,VALID,27.6572,VALID,355,VALID,1.2875,
2009-10-01, 00:34:04,VALID,1002.93,VALID,0,VALID,76.0142,VALID,0,VALID,27.6551,VALID,349,VALID,0.678906,
2009-10-01, 00:35:04,VALID,1002.93,VALID,0,VALID,76.1515,VALID,0,VALID,27.6551,VALID,307,VALID,0.636328,
2009-10-01, 00:36:04,VALID,1002.94,VALID,0,VALID,76.2735,VALID,0,VALID,27.6551,VALID,303,VALID,0.844141,
2009-10-01, 00:37:04,VALID,1002.94,VALID,0,VALID,76.5863,VALID,0,VALID,27.6767,VALID,334,VALID,0.268359,
2009-10-01, 00:38:04,VALID,1002.98,VALID,0,VALID,76.037,VALID,0.100563,VALID,27.6767,VALID,330,VALID,0.892578,
2009-10-01, 00:39:04,VALID,1002.96,VALID,0,VALID,75.8692,VALID,0,VALID,27.6767,VALID,350,VALID,0.890625,
2009-10-01, 00:40:04,VALID,1002.94,VALID,0,VALID,75.8616,VALID,0,VALID,27.6941,VALID,327,VALID,1.23984,
2009-10-01, 00:41:04,VALID,1002.94,VALID,0,VALID,75.6251,VALID,0.100563,VALID,27.6941,VALID,349,VALID,1.09531,
2009-10-01, 00:42:04,VALID,1002.94,VALID,0,VALID,75.7166,VALID,0,VALID,27.7351,VALID,354,VALID,0.273438,
2009-10-01, 00:43:04,VALID,1002.93,VALID,0,VALID,75.6098,VALID,0,VALID,27.7136,VALID,353,VALID,0.922656,
2009-10-01, 00:44:04,VALID,1002.89,VALID,0,VALID,75.6327,VALID,0,VALID,27.7136,VALID,343,VALID,0.764063,
2009-10-01, 00:45:04,VALID,1002.86,VALID,0,VALID,75.5641,VALID,0.100563,VALID,27.7136,VALID,354,VALID,0.868359,
2009-10-01, 00:46:04,VALID,1002.85,VALID,0,VALID,75.5564,VALID,0,VALID,27.7136,VALID,3,VALID,0.783984,
2009-10-01, 00:47:04,VALID,1002.83,VALID,0,VALID,75.7624,VALID,0.100563,VALID,27.7136,VALID,8,VALID,0.644141,
2009-10-01, 00:48:04,VALID,1002.87,VALID,0,VALID,75.8692,VALID,0,VALID,27.7157,VALID,355,VALID,0.00234375,
2009-10-01, 00:49:04,VALID,1002.85,VALID,0,VALID,75.709,VALID,0,VALID,27.6962,VALID,340,VALID,0.79375,
2009-10-01, 00:50:04,VALID,1002.82,VALID,0,VALID,75.7166,VALID,0,VALID,27.6746,VALID,353,VALID,0.826172,
2009-10-01, 00:51:04,VALID,1002.83,VALID,0,VALID,75.6556,VALID,0.100563,VALID,27.6941,VALID,351,VALID,0.930078,
2009-10-01, 00:52:04,VALID,1002.83,VALID,0,VALID,75.6327,VALID,0,VALID,27.6941,VALID,338,VALID,1.01641,
2009-10-01, 00:53:04,VALID,1002.8,VALID,0,VALID,75.6098,VALID,0,VALID,27.6941,VALID,345,VALID,0.916406,
2009-10-01, 00:54:04,VALID,1002.78,VALID,0,VALID,75.915,VALID,0,VALID,27.7157,VALID,1,VALID,0.319922,
2009-10-01, 00:55:04,VALID,1002.75,VALID,0,VALID,75.8234,VALID,0,VALID,27.6962,VALID,359,VALID,0.0867188,
2009-10-01, 00:56:04,VALID,1002.73,VALID,0,VALID,75.9684,VALID,0,VALID,27.6746,VALID,23,VALID,0.292969,
2009-10-01, 00:57:05,VALID,1002.71,VALID,0,VALID,75.648,VALID,0,VALID,27.6941,VALID,225,VALID,0.318359,
2009-10-01, 00:58:05,VALID,1002.7,VALID,0,VALID,75.7472,VALID,0.100563,VALID,27.6746,VALID,262,VALID,0.387109,
2009-10-01, 00:59:05,VALID,1002.69,VALID,0,VALID,75.6556,VALID,0,VALID,27.6962,VALID,342,VALID,0.617969,
2009-10-01, 01:00:05,VALID,1002.68,VALID,0,VALID,75.4573,VALID,0,VALID,27.6746,VALID,335,VALID,0.789063,
2009-10-01, 01:01:05,VALID,1002.69,VALID,0,VALID,75.5717,VALID,0.100563,VALID,27.6962,VALID,333,VALID,0.697266,
2009-10-01, 01:02:05,VALID,1002.68,VALID,0,VALID,75.5183,VALID,0,VALID,27.6767,VALID,341,VALID,0.4,
2009-10-01, 01:03:05,VALID,1002.71,VALID,0,VALID,75.3733,VALID,0.100563,VALID,27.6767,VALID,20,VALID,0.361719,
2009-10-01, 01:04:05,VALID,1002.69,VALID,0,VALID,74.6791,VALID,0,VALID,27.7157,VALID,350,VALID,1.40313,
2009-10-01, 01:05:05,VALID,1002.69,VALID,0,VALID,74.6333,VALID,0,VALID,27.7351,VALID,340,VALID,0.549219,
2009-10-01, 01:06:05,VALID,1002.71,VALID,0,VALID,74.5723,VALID,0.100563,VALID,27.7136,VALID,338,VALID,0.630078,
2009-10-01, 01:07:05,VALID,1002.69,VALID,0,VALID,74.6486,VALID,0.100563,VALID,27.7741,VALID,338,VALID,0.35625,
2009-10-01, 01:08:05,VALID,1002.71,VALID,0,VALID,74.763,VALID,0,VALID,27.7525,VALID,330,VALID,0.352344,
2009-10-01, 01:09:05,VALID,1002.73,VALID,0,VALID,74.0841,VALID,0.100563,VALID,27.733,VALID,331,VALID,0.744922,
2009-10-01, 01:10:05,VALID,1002.74,VALID,0,VALID,74.0764,VALID,0.100563,VALID,27.7525,VALID,341,VALID,0.590625,
2009-10-01, 01:11:05,VALID,1002.73,VALID,0,VALID,74.0917,VALID,0.100563,VALID,27.7741,VALID,349,VALID,0.326953,
2009-10-01, 01:12:05,VALID,1002.74,VALID,0,VALID,74.1909,VALID,0.100563,VALID,27.7525,VALID,284,VALID,0.334766,
2009-10-01, 01:13:05,VALID,1002.75,VALID,0,VALID,73.6645,VALID,0,VALID,27.7546,VALID,350,VALID,0.675781,
2009-10-01, 01:14:05,VALID,1002.74,VALID,0,VALID,73.4585,VALID,0,VALID,27.7741,VALID,345,VALID,0.553906,
2009-10-01, 01:15:05,VALID,1002.8,VALID,0,VALID,73.7179,VALID,0,VALID,27.7936,VALID,345,VALID,0.188281,
2009-10-01, 01:16:05,VALID,1002.76,VALID,0,VALID,73.3135,VALID,0,VALID,27.772,VALID,354,VALID,0.789063,
2009-10-01, 01:17:05,VALID,1002.76,VALID,0,VALID,73.3059,VALID,0,VALID,27.7936,VALID,349,VALID,0.453125,
2009-10-01, 01:18:05,VALID,1002.73,VALID,0,VALID,72.9474,VALID,0,VALID,27.8152,VALID,4,VALID,0.632813,
2009-10-01, 01:19:05,VALID,1002.69,VALID,0,VALID,72.9855,VALID,0,VALID,27.7936,VALID,329,VALID,0.553125,
2009-10-01, 01:20:05,VALID,1002.71,VALID,0,VALID,72.9474,VALID,0,VALID,27.8326,VALID,308,VALID,0.187891,
2009-10-01, 01:21:05,VALID,1002.68,VALID,0,VALID,73.222,VALID,0,VALID,27.8326,VALID,308,VALID,0.0957031,
2009-10-01, 01:22:05,VALID,1002.67,VALID,0,VALID,73.1457,VALID,0,VALID,27.8131,VALID,308,VALID,0.0453125,
2009-10-01, 01:23:05,VALID,1002.65,VALID,0,VALID,73.3364,VALID,0,VALID,27.8347,VALID,302,VALID,0.455469,
2009-10-01, 01:24:05,VALID,1002.63,VALID,0,VALID,73.2983,VALID,0,VALID,27.7936,VALID,302,VALID,0.317187,
2009-10-01, 01:25:05,VALID,1002.6,VALID,0,VALID,73.161,VALID,0,VALID,27.7936,VALID,300,VALID,0.623047,
2009-10-01, 01:26:05,VALID,1002.59,VALID,0,VALID,73.2525,VALID,0,VALID,27.8152,VALID,299,VALID,0.250391,
2009-10-01, 01:27:05,VALID,1002.55,VALID,0,VALID,72.7871,VALID,0,VALID,27.7957,VALID,280,VALID,0.770703,
2009-10-01, 01:28:05,VALID,1002.55,VALID,0,VALID,73.6645,VALID,0,VALID,27.772,VALID,280,VALID,0,
2009-10-01, 01:29:05,VALID,1002.5,VALID,0,VALID,73.1686,VALID,0,VALID,27.772,VALID,280,VALID,0.0917969,
2009-10-01, 01:30:05,VALID,1002.51,VALID,0,VALID,73.2296,VALID,0,VALID,27.7525,VALID,280,VALID,0.173828,
2009-10-01, 01:31:05,VALID,1002.49,VALID,0,VALID,73.5958,VALID,0,VALID,27.7546,VALID,280,VALID,0,
2009-10-01, 01:32:05,VALID,1002.46,VALID,0,VALID,73.4737,VALID,0,VALID,27.733,VALID,279,VALID,0.349219,
2009-10-01, 01:33:05,VALID,1002.45,VALID,0,VALID,73.4203,VALID,0,VALID,27.7157,VALID,279,VALID,0.246875,
2009-10-01, 01:34:05,VALID,1002.41,VALID,0,VALID,73.2525,VALID,0,VALID,27.7136,VALID,279,VALID,0.178516,
2009-10-01, 01:35:05,VALID,1002.4,VALID,0,VALID,73.3898,VALID,0.100563,VALID,27.7351,VALID,280,VALID,0.362891,
2009-10-01, 01:36:05,VALID,1002.4,VALID,0,VALID,73.2601,VALID,0,VALID,27.6746,VALID,280,VALID,0.253125,
2009-10-01, 01:37:05,VALID,1002.37,VALID,0,VALID,73.489,VALID,0,VALID,27.6962,VALID,280,VALID,0.122656,
2009-10-01, 01:38:05,VALID,1002.38,VALID,0,VALID,72.9321,VALID,0,VALID,27.6962,VALID,344,VALID,0.525391,
2009-10-01, 01:39:05,VALID,1002.34,VALID,0,VALID,72.7566,VALID,0,VALID,27.6962,VALID,344,VALID,0.291797,
2009-10-01, 01:40:05,VALID,1002.38,VALID,0,VALID,74.1603,VALID,0,VALID,27.6962,VALID,344,VALID,0,
2009-10-01, 01:41:05,VALID,1002.37,VALID,0,VALID,74.1603,VALID,0,VALID,27.6767,VALID,344,VALID,0,
2009-10-01, 01:42:05,VALID,1002.39,VALID,0,VALID,74.0841,VALID,0,VALID,27.6356,VALID,344,VALID,0,
2009-10-01, 01:43:05,VALID,1002.37,VALID,0,VALID,74.4274,VALID,0,VALID,27.5987,VALID,344,VALID,0.273828,
2009-10-01, 01:44:05,VALID,1002.36,VALID,0,VALID,76.0676,VALID,0,VALID,27.5598,VALID,344,VALID,0.0183594,
2009-10-01, 01:45:05,VALID,1002.37,VALID,0,VALID,75.4191,VALID,0,VALID,27.4797,VALID,344,VALID,0,
2009-10-01, 01:46:05,VALID,1002.39,VALID,0,VALID,76.0294,VALID,0,VALID,27.4428,VALID,344,VALID,0.117188,
2009-10-01, 01:47:05,VALID,1002.4,VALID,0,VALID,75.9379,VALID,0,VALID,27.3823,VALID,344,VALID,0,
2009-10-01, 01:48:05,VALID,1002.38,VALID,0,VALID,76.4414,VALID,0.100563,VALID,27.3044,VALID,344,VALID,0,
2009-10-01, 01:49:05,VALID,1002.38,VALID,0,VALID,76.6626,VALID,0,VALID,27.2264,VALID,344,VALID,0.286328,
2009-10-01, 01:50:05,VALID,1002.39,VALID,0,VALID,76.0447,VALID,0.100563,VALID,27.2069,VALID,344,VALID,0.210156,
2009-10-01, 01:51:05,VALID,1002.36,VALID,0,VALID,75.9608,VALID,0,VALID,27.1875,VALID,344,VALID,0.521484,
2009-10-01, 01:52:05,VALID,1002.38,VALID,0,VALID,76.8457,VALID,0.100563,VALID,27.168,VALID,344,VALID,0.556641,
2009-10-01, 01:53:05,VALID,1002.33,VALID,0,VALID,75.6175,VALID,0,VALID,27.17,VALID,345,VALID,0.5125,
2009-10-01, 01:54:05,VALID,1002.31,VALID,0,VALID,76.4109,VALID,0,VALID,27.168,VALID,331,VALID,0.147656,
2009-10-01, 01:55:05,VALID,1002.29,VALID,0,VALID,77.3645,VALID,0,VALID,27.209,VALID,331,VALID,0.436719,
2009-10-01, 01:56:05,VALID,1002.32,VALID,0,VALID,75.7853,VALID,0,VALID,27.1895,VALID,337,VALID,0.498047,
2009-10-01, 01:57:05,VALID,1002.31,VALID,0,VALID,75.3657,VALID,0,VALID,27.2264,VALID,300,VALID,0.692578,
2009-10-01, 01:58:05,VALID,1002.3,VALID,0,VALID,73.9696,VALID,0,VALID,27.2675,VALID,285,VALID,0.777734,
2009-10-01, 01:59:05,VALID,1002.28,VALID,0,VALID,74.1603,VALID,0,VALID,27.3649,VALID,285,VALID,0.155859,
2009-10-01, 02:00:05,VALID,1002.3,VALID,0,VALID,74.4884,VALID,0,VALID,27.4449,VALID,285,VALID,0,
2009-10-01, 02:01:05,VALID,1002.27,VALID,0,VALID,74.2595,VALID,0,VALID,27.4623,VALID,285,VALID,0.00195313,
2009-10-01, 02:02:05,VALID,1002.32,VALID,0,VALID,74.7554,VALID,0,VALID,27.4623,VALID,285,VALID,0.364453,
2009-10-01, 02:03:05,VALID,1002.3,VALID,0,VALID,73.5653,VALID,0,VALID,27.4623,VALID,293,VALID,0.951953,
2009-10-01, 02:04:05,VALID,1002.31,VALID,0,VALID,73.4509,VALID,0,VALID,27.5208,VALID,288,VALID,0.896094,
2009-10-01, 02:05:05,VALID,1002.32,VALID,0,VALID,74.0535,VALID,0,VALID,27.5598,VALID,287,VALID,0.478906,
2009-10-01, 02:06:05,VALID,1002.34,VALID,0,VALID,73.4432,VALID,0,VALID,27.5598,VALID,305,VALID,0.432422,
2009-10-01, 02:07:05,VALID,1002.35,VALID,0,VALID,73.2373,VALID,0,VALID,27.5813,VALID,282,VALID,0.366797,
2009-10-01, 02:08:05,VALID,1002.37,VALID,0,VALID,73.5195,VALID,0,VALID,27.5792,VALID,340,VALID,0.658594,
2009-10-01, 02:09:05,VALID,1002.38,VALID,0,VALID,73.6721,VALID,0,VALID,27.6008,VALID,286,VALID,0.267578,
2009-10-01, 02:10:05,VALID,1002.39,VALID,0,VALID,73.4356,VALID,0,VALID,27.5792,VALID,287,VALID,0.373437,
2009-10-01, 02:11:05,VALID,1002.43,VALID,0,VALID,73.6111,VALID,0,VALID,27.5792,VALID,287,VALID,0.0960938,
2009-10-01, 02:12:05,VALID,1002.39,VALID,0,VALID,73.2449,VALID,0,VALID,27.5813,VALID,326,VALID,0.564453,
2009-10-01, 02:13:05,VALID,1002.43,VALID,0,VALID,73.3898,VALID,0,VALID,27.5987,VALID,348,VALID,0.323047,
2009-10-01, 02:14:05,VALID,1002.45,VALID,0,VALID,73.4966,VALID,0,VALID,27.5966,VALID,347,VALID,0.149219,
2009-10-01, 02:15:05,VALID,1002.45,VALID,0,VALID,73.4966,VALID,0,VALID,27.6377,VALID,348,VALID,0.346875,
2009-10-01, 02:16:05,VALID,1002.43,VALID,0,VALID,72.8253,VALID,0,VALID,27.5966,VALID,351,VALID,0.698828,
2009-10-01, 02:17:05,VALID,1002.45,VALID,0,VALID,73.0542,VALID,0.100563,VALID,27.6377,VALID,344,VALID,0.0214844,
2009-10-01, 02:18:05,VALID,1002.46,VALID,0,VALID,73.1457,VALID,0,VALID,27.5966,VALID,344,VALID,0.126563,
2009-10-01, 02:19:05,VALID,1002.46,VALID,0,VALID,73.4051,VALID,0,VALID,27.6182,VALID,335,VALID,0.0292969,
2009-10-01, 02:20:05,VALID,1002.44,VALID,0,VALID,72.8711,VALID,0,VALID,27.5987,VALID,3,VALID,0.538281,
2009-10-01, 02:21:05,VALID,1002.49,VALID,0,VALID,72.6803,VALID,0,VALID,27.6182,VALID,360,VALID,0.0667969,
2009-10-01, 02:22:05,VALID,1002.47,VALID,0,VALID,72.9855,VALID,0,VALID,27.6161,VALID,360,VALID,0.115234,
2009-10-01, 02:23:05,VALID,1002.48,VALID,0,VALID,73.4661,VALID,0,VALID,27.6182,VALID,359,VALID,0.0898438,
2009-10-01, 02:24:05,VALID,1002.47,VALID,0,VALID,72.3065,VALID,0,VALID,27.5966,VALID,358,VALID,0.554297,
2009-10-01, 02:25:05,VALID,1002.43,VALID,0,VALID,71.8335,VALID,0,VALID,27.6377,VALID,346,VALID,0.893359,
2009-10-01, 02:26:05,VALID,1002.46,VALID,0,VALID,72.3904,VALID,0,VALID,27.6746,VALID,349,VALID,0.351953,
2009-10-01, 02:27:05,VALID,1002.45,VALID,0,VALID,72.0471,VALID,0,VALID,27.6941,VALID,351,VALID,0.508984,
2009-10-01, 02:28:05,VALID,1002.48,VALID,0,VALID,71.5436,VALID,0,VALID,27.7351,VALID,351,VALID,0.299219,
2009-10-01, 02:29:05,VALID,1002.48,VALID,0,VALID,72.07,VALID,0,VALID,27.733,VALID,311,VALID,0.539063,
2009-10-01, 02:30:05,VALID,1002.49,VALID,0,VALID,72.543,VALID,0,VALID,27.7546,VALID,324,VALID,0.462891,
2009-10-01, 02:31:05,VALID,1002.47,VALID,0,VALID,72.5964,VALID,0,VALID,27.7525,VALID,344,VALID,0.325391,
2009-10-01, 02:32:05,VALID,1002.5,VALID,0,VALID,71.2537,VALID,0,VALID,27.7525,VALID,282,VALID,0.383203,
2009-10-01, 02:33:05,VALID,1002.5,VALID,0,VALID,72.8253,VALID,0,VALID,27.7915,VALID,283,VALID,0.269141,
2009-10-01, 02:34:05,VALID,1002.48,VALID,0,VALID,71.536,VALID,0,VALID,27.772,VALID,283,VALID,0.177344,
2009-10-01, 02:35:05,VALID,1002.49,VALID,0,VALID,71.7572,VALID,0,VALID,27.7915,VALID,283,VALID,0.296094,
2009-10-01, 02:36:05,VALID,1002.48,VALID,0,VALID,71.7267,VALID,0,VALID,27.7915,VALID,283,VALID,0.306641,
2009-10-01, 02:37:05,VALID,1002.48,VALID,0,VALID,71.063,VALID,0,VALID,27.8131,VALID,283,VALID,0.492578,
2009-10-01, 02:38:05,VALID,1002.46,VALID,0,VALID,72.1387,VALID,0,VALID,27.8305,VALID,283,VALID,0.00234375,
2009-10-01, 02:39:05,VALID,1002.48,VALID,0,VALID,72.1387,VALID,0,VALID,27.8326,VALID,283,VALID,0,
2009-10-01, 02:40:05,VALID,1002.44,VALID,0,VALID,72.3218,VALID,0,VALID,27.8326,VALID,283,VALID,0,
2009-10-01, 02:41:05,VALID,1002.47,VALID,0,VALID,72.3142,VALID,0,VALID,27.772,VALID,283,VALID,0.254297,
2009-10-01, 02:42:05,VALID,1002.47,VALID,0,VALID,72.07,VALID,0,VALID,27.7525,VALID,283,VALID,0.0675781,
2009-10-01, 02:43:05,VALID,1002.48,VALID,0,VALID,72.6117,VALID,0,VALID,27.7546,VALID,283,VALID,0.171875,
2009-10-01, 02:44:05,VALID,1002.47,VALID,0,VALID,72.154,VALID,0,VALID,27.7351,VALID,284,VALID,0.692969,
2009-10-01, 02:45:05,VALID,1002.46,VALID,0,VALID,72.5812,VALID,0,VALID,27.7351,VALID,284,VALID,0.108984,
2009-10-01, 02:46:05,VALID,1002.49,VALID,0,VALID,72.4057,VALID,0,VALID,27.6941,VALID,360,VALID,0.619141,
2009-10-01, 02:47:05,VALID,1002.46,VALID,0,VALID,72.4133,VALID,0,VALID,27.6746,VALID,303,VALID,0.187109,
2009-10-01, 02:48:05,VALID,1002.49,VALID,0,VALID,72.543,VALID,0,VALID,27.6551,VALID,303,VALID,0.240625,
2009-10-01, 02:49:05,VALID,1002.47,VALID,0,VALID,72.4591,VALID,0,VALID,27.6551,VALID,301,VALID,0.237891,
2009-10-01, 02:50:05,VALID,1002.48,VALID,0,VALID,72.9092,VALID,0,VALID,27.6572,VALID,301,VALID,0.121094,
2009-10-01, 02:51:05,VALID,1002.47,VALID,0,VALID,72.9321,VALID,0,VALID,27.6161,VALID,319,VALID,0.260547,
2009-10-01, 02:52:05,VALID,1002.47,VALID,0,VALID,72.8329,VALID,0,VALID,27.5966,VALID,319,VALID,0.0632813,
2009-10-01, 02:53:05,VALID,1002.47,VALID,0,VALID,72.894,VALID,0,VALID,27.6182,VALID,334,VALID,0.622656,
2009-10-01, 02:54:05,VALID,1002.45,VALID,0,VALID,73.1991,VALID,0,VALID,27.6182,VALID,338,VALID,0.145703,
2009-10-01, 02:55:05,VALID,1002.44,VALID,0,VALID,73.2449,VALID,0,VALID,27.5966,VALID,285,VALID,0.5875,
2009-10-01, 02:56:05,VALID,1002.44,VALID,0,VALID,73.4509,VALID,0,VALID,27.5772,VALID,285,VALID,0.118359,
2009-10-01, 02:57:05,VALID,1002.47,VALID,0,VALID,73.3135,VALID,0,VALID,27.5792,VALID,285,VALID,0.260156,
2009-10-01, 02:58:05,VALID,1002.52,VALID,0,VALID,73.8094,VALID,0,VALID,27.5382,VALID,285,VALID,0.00195313,
2009-10-01, 02:59:05,VALID,1002.54,VALID,0,VALID,73.4814,VALID,0,VALID,27.5187,VALID,285,VALID,0.0078125,
2009-10-01, 03:00:05,VALID,1002.55,VALID,0,VALID,73.5119,VALID,0,VALID,27.5187,VALID,285,VALID,0.324609,
2009-10-01, 03:01:05,VALID,1002.54,VALID,0,VALID,73.7789,VALID,0,VALID,27.4992,VALID,285,VALID,0.146484,
2009-10-01, 03:02:05,VALID,1002.51,VALID,0,VALID,74.3663,VALID,0,VALID,27.5208,VALID,285,VALID,0,
2009-10-01, 03:03:05,VALID,1002.54,VALID,0,VALID,73.8247,VALID,0,VALID,27.4623,VALID,285,VALID,0.0429688,
2009-10-01, 03:04:05,VALID,1002.49,VALID,0,VALID,73.4661,VALID,0,VALID,27.4602,VALID,286,VALID,0.461719,
2009-10-01, 03:05:05,VALID,1002.47,VALID,0,VALID,73.5958,VALID,0,VALID,27.4797,VALID,318,VALID,0.0925781,
2009-10-01, 03:06:05,VALID,1002.47,VALID,0,VALID,74.023,VALID,0,VALID,27.4818,VALID,318,VALID,0.0769531,
2009-10-01, 03:07:05,VALID,1002.47,VALID,0,VALID,73.6721,VALID,0,VALID,27.4623,VALID,318,VALID,0.0503906,
2009-10-01, 03:08:05,VALID,1002.46,VALID,0,VALID,73.6721,VALID,0,VALID,27.4623,VALID,318,VALID,0.114063,
2009-10-01, 03:09:05,VALID,1002.44,VALID,0,VALID,73.3669,VALID,0,VALID,27.4408,VALID,318,VALID,0.0585938,
2009-10-01, 03:10:05,VALID,1002.43,VALID,0,VALID,73.3135,VALID,0,VALID,27.4623,VALID,284,VALID,0.828125,
2009-10-01, 03:11:05,VALID,1002.45,VALID,0,VALID,73.6721,VALID,0,VALID,27.4797,VALID,289,VALID,0.361719,
2009-10-01, 03:12:05,VALID,1002.4,VALID,0,VALID,72.9626,VALID,0,VALID,27.4992,VALID,289,VALID,0.391797,
2009-10-01, 03:13:05,VALID,1002.42,VALID,0,VALID,73.2754,VALID,0.100563,VALID,27.5382,VALID,289,VALID,0.296484,
2009-10-01, 03:14:05,VALID,1002.42,VALID,0,VALID,73.4356,VALID,0.100563,VALID,27.5382,VALID,295,VALID,0.365625,
2009-10-01, 03:15:05,VALID,1002.4,VALID,0,VALID,73.7255,VALID,0,VALID,27.5598,VALID,339,VALID,0.236719,
2009-10-01, 03:16:05,VALID,1002.38,VALID,0,VALID,73.3822,VALID,0.100563,VALID,27.5187,VALID,356,VALID,0.692187,
2009-10-01, 03:17:05,VALID,1002.4,VALID,0,VALID,72.9702,VALID,0,VALID,27.5187,VALID,356,VALID,0.523047,
2009-10-01, 03:18:05,VALID,1002.39,VALID,0,VALID,73.4051,VALID,0.100563,VALID,27.5187,VALID,356,VALID,0.388281,
2009-10-01, 03:19:05,VALID,1002.38,VALID,0,VALID,73.5424,VALID,0,VALID,27.4992,VALID,356,VALID,0.137109,
2009-10-01, 03:20:05,VALID,1002.39,VALID,0,VALID,74.168,VALID,0.100563,VALID,27.4992,VALID,356,VALID,0,
2009-10-01, 03:21:05,VALID,1002.39,VALID,0,VALID,73.4966,VALID,0,VALID,27.5208,VALID,352,VALID,0.0550781,
2009-10-01, 03:22:05,VALID,1002.36,VALID,0,VALID,73.8781,VALID,0,VALID,27.4602,VALID,324,VALID,0.157031,
2009-10-01, 03:23:05,VALID,1002.35,VALID,0,VALID,74.1603,VALID,0,VALID,27.4602,VALID,324,VALID,0.185156,
2009-10-01, 03:24:05,VALID,1002.35,VALID,0,VALID,73.3441,VALID,0.100563,VALID,27.4408,VALID,300,VALID,0.738281,
2009-10-01, 03:25:05,VALID,1002.35,VALID,0,VALID,73.5577,VALID,0.100563,VALID,27.4797,VALID,296,VALID,0.498828,
2009-10-01, 03:26:05,VALID,1002.36,VALID,0,VALID,73.9696,VALID,0.100563,VALID,27.4797,VALID,286,VALID,0.195313,
2009-10-01, 03:27:05,VALID,1002.35,VALID,0,VALID,75.236,VALID,0,VALID,27.4818,VALID,286,VALID,0.0773437,
2009-10-01, 03:28:05,VALID,1002.35,VALID,0,VALID,74.2137,VALID,0,VALID,27.4408,VALID,288,VALID,0.587891,
2009-10-01, 03:29:05,VALID,1002.36,VALID,0,VALID,74.1756,VALID,0.100563,VALID,27.4213,VALID,290,VALID,0.369531,
2009-10-01, 03:30:05,VALID,1002.36,VALID,0,VALID,74.3434,VALID,0,VALID,27.4213,VALID,294,VALID,0.00117188,
2009-10-01, 03:31:05,VALID,1002.37,VALID,0,VALID,74.557,VALID,0,VALID,27.4213,VALID,294,VALID,0.240625,
2009-10-01, 03:32:05,VALID,1002.36,VALID,0,VALID,74.023,VALID,0,VALID,27.4039,VALID,291,VALID,0.666016,
2009-10-01, 03:33:05,VALID,1002.35,VALID,0,VALID,74.7478,VALID,0,VALID,27.3823,VALID,311,VALID,0.327344,
2009-10-01, 03:34:05,VALID,1002.33,VALID,0,VALID,74.6791,VALID,0,VALID,27.3628,VALID,311,VALID,0.139844,
2009-10-01, 03:35:05,VALID,1002.33,VALID,0,VALID,74.8317,VALID,0,VALID,27.3238,VALID,311,VALID,0.236328,
2009-10-01, 03:36:04,VALID,1002.33,VALID,0,VALID,74.9919,VALID,0,VALID,27.3433,VALID,311,VALID,0.0242187,
2009-10-01, 03:37:04,VALID,1002.31,VALID,0,VALID,75.3276,VALID,0.100563,VALID,27.3044,VALID,310,VALID,0.040625,
2009-10-01, 03:38:04,VALID,1002.31,VALID,0,VALID,75.175,VALID,0.100563,VALID,27.2849,VALID,310,VALID,0.114453,
2009-10-01, 03:39:04,VALID,1002.32,VALID,0,VALID,74.6105,VALID,0,VALID,27.2654,VALID,291,VALID,0.763281,
2009-10-01, 03:40:04,VALID,1002.31,VALID,0,VALID,74.7249,VALID,0.100563,VALID,27.2459,VALID,275,VALID,0.327734,
2009-10-01, 03:41:04,VALID,1002.27,VALID,0,VALID,74.7783,VALID,0,VALID,27.2264,VALID,276,VALID,0.579297,
2009-10-01, 03:42:04,VALID,1002.27,VALID,0,VALID,75.7853,VALID,0,VALID,27.2459,VALID,276,VALID,0.297656,